World > North America > United States > Nebraska

Kimball County, Nebraska Regional Weather

Lat: 41.19N, Lon: 103.71W
Wx Zone: NEZ054Web Search

If you are on your PC, you can easily pass this page to your phone by scanning the QR Code near the bottom with your camera.

Feedback


°F Click to change Kimball County hourly weather to Imperial units.Click to change Kimball County hourly weather to Metric units. °C
Kimball County Weather Map
UTC Time: 4/11/2021, 15:25
Your Time:

Kimball County, NE Regional Weather

Expires:202104111600;;389021
ASUS43 KOAX 111510
RWRNE 

WEATHER ROUNDUP FOR NEBRASKA
NATIONAL WEATHER SERVICE OMAHA NE
1000 AM CDT SUN APR 11 2021

NOTES: SATELLITE DATA IS BEING USED TO AUGMENT CLOUD COVER ABOVE
       12000 FEET.
       "FAIR" INDICATES FEW OR NO CLOUDS BELOW 12,000 FEET WITH NO
       SIGNIFICANT WEATHER AND/OR OBSTRUCTIONS TO VISIBILITY.

   

NEZ001>004-019>022-054>056-111600-
NEBRASKA PANHANDLE
  
CITY           SKY/WX    TMP DP  RH WIND       PRES   REMARKS
SCOTTSBLUFF    MOSUNNY   43  25  49 NW23G35   29.87R                  
ALLIANCE       MOSUNNY   41  29  62 NW20G30   29.82R                  
CHADRON        CLOUDY    42  28  57 NW22G30   29.85R                  
GORDON         PTSUNNY   39  28  63 N26G37    29.80R WCI  28          
KIMBALL        MOSUNNY   38  24  56 N26G37    29.84R WCI  27          
SIDNEY         SUNNY     41  25  53 N31G41    29.81R                  
$$
 

SKY/WX - Weather  TMP - Temperature  DP - Dew Point  RH - Relative Humidity
WIND - Wind Direction/Speed PRES - Barometric Pressure VSB - Visibility
WCI - Wind Chill Index E13G22 Wind - East Wind 13 mph/Gusts of 22 mph